SCP
0 0 0 0 0 0 0 0 0 0 0 0 0 0 0 0 0 0 0 0 0 0 0 0 0 0 0 0 0 0 0 0 0 0 0 0 0 0 0 0 0 0 0
0 0 0 0 0 0 0 0 0 0 0 0 0 0 0 0 0 0 0 0 0 0 0 0 0 0 0 0 0 0 0 0 0 0 0 0 0 0 0 0 0 0 0
0 0 0 0 0 0 0 0 0 0 0 0 0 0 0 0 0 0 0 0 0 0 0 0 0 0 0 0 0 0 0 0 0 0 0 0 0 0 0 0 0 0 0
0 0 0 0 0 0 0 0 0 0 0 0 0 0 0 0 0 0 0 0 0 0 0 0 0 0 0 0 0 0 0 0 0 0 0 0 0 0 0 0 0 0 0
0 0 0 0 0 0 0 0 0 0 0 0 0 0 0 0 0 0 0 0 0 0 0 0 0 0 0 0 0 0 0 0 0 0 0 0 0 0 0 0 0 0 0
0 0 0 0 0 0 0 0 0 0 0 0 0 0 0 0 0 0 0 0 0 0 0 0 0 0 0 0 0 0 0 0 0 0 0 0 0 0 0 0 0 0 0
0 0 0 0 0 0 0 0 0 0 0 0 0 0 0 0 0 0 0 0 0 0 0 0 0 0 0 0 0 0 0 0 0 0 0 0 0 0 0 0 0 0 0
0 0 0 0 0 0 0 0 0 0 0 0 0 0 0 0 0 0 0 0 0 0 0 0 0 0 0 0 0 0 0 0 0 0 0 0 0 0 0 0 0 0 0
0 0 0 0 0 0 0 0 0 0 0 0 0 0 0 0 0 0 0 0 0 0 0 0 0 0 0 0 0 0 0 0 0 0 0 0 0 0 0 0 0 0 0
0 0 0 0 0 0 0 0 0 0 0 0 0 0 0 0 0 0 0 0 0 0 0 0 0 0 0 0 0 0 0 0 0 0 0 0 0 0 0 0 0 0 0
0 0 0 0 0 0 0 0 0 0 0 0 0 0 0 0 0 0 0 0 0 0 0 0 0 0 0 0 0 0 0 0 0 0 0 0 0 0 0 0 0 0 0
0 0 0 0 0 0 0 0 0 0 0 0 0 0 0 0 0 0 0 0 0 0 0 0 0 0 0 0 0 0 0 0 0 0 0 0 0 0 0 0 0 0 0
0 0 0 0 0 0 0 0 0 0 0 0 0 0 0 0 0 0 0 0 0 0 0 0 0 0 0 0 0 0 0 0 0 0 0 0 0 0 0 0 0 0 0
0 0 0 0 0 0 0 0 0 0 0 0 0 0 0 0 0 0 0 0 0 0 0 0 0 0 0 0 0 0 0 0 0 0 0 0 0 0 0 0 0 0 0
0 0 0 0 0 0 0 0 0 0 0 0 0 0 0 0 0 0 0 0 0 0 0 0 0 0 0 0 0 0 0 0 0 0 0 0 0 0 0 0 0 0 0
0 0 0 0 0 0 0 0 0 0 0 0 0 0 0 0 0 0 0 0 0 0 0 0 0 0 0 0 0 0 0 0 0 0 0 0 0 0 0 0 0 0 0
0 0 0 0 0 0 0 0 0 0 0 0 0 0 0 0 0 0 0 0 0 0 0 0 0 0 0 0 0 0 0 0 0 0 0 0 0 0 0 0 0 0 0
0 0 0 0 0 0 0 0 0 0 0 0 0 0 0 0 0 0 0 0 0 0 0 0 0 0 0 0 0 0 0 0 0 0 0 0 0 0 0 0 0 0 0
0 0 0 0 0 0 0 0 0 0 0 0 0 0 0 0 0 0 0 0 0 0 0 0 0 0 0 0 0 0 0 0 0 0 0 0 0 0 0 0 0 0 0
0 0 0 0 0 0 0 0 0 0 0 0 0 0 0 0 0 0 0 0 0 0 0 0 0 0 0 0 0 0 0 0 0 0 0 0 0 0 0 0 0 0 0
0 0 0 0 0 0 0 0 0 0 0 0 0 0 0 0 0 0 0 0 0 0 0 0 0 0 0 0 0 0 0 0 0 0 0 0 0 0 0 0 0 0 0
0 0 0 0 0 0 0 0 0 0 0 0 0 0 0 0 0 0 0 0 0 0 0 0 0 0 0 0 0 0 0 0 0 0 0 0 0 0 0 0 0 0 0
0 0 0 0 0 0 0 0 0 0 0 0 0 0 0 0 0 0 0 0 0 0 0 0 0 0 0 0 0 0 0 0 0 0 0 0 0 0 0 0 0 0 0
0 0 0 0 0 0 0 0 0 0 0 0 0 0 0 0 0 0 0 0 0 0 0 0 0 0 0 0 0 0 0 0 0 0 0 0 0 0 0 0 0 0 0
0 0 0 0 0 0 0 0 0 0 0 0 0 0 0 0 0 0 0 0 0 0 0 0 0 0 0 0 0 0 0 0 0 0 0 0 0 0 0 0 0 0 0
0 0 0 0 0 0 0 0 0 0 0 0 0 0 0 0 0 0 0 0 0 0 0 0 0 0 0 0 0 0 0 0 0 0 0 0 0 0 0 0 0 0 0
Wind_Speed_500mb
24 21 18 15 14 13 12 11 11 10 10 10 10 9 7 4 2 0 2 5 9 9 11 12 12 16 20 21 24 26 28 30 31 33 32 32 34 35 36 37 37 38 38
23 21 20 20 21 17 14 12 12 14 12 12 12 10 8 6 4 2 4 7 10 11 13 16 17 18 18 18 21 24 28 30 33 33 34 34 34 37 37 38 39 40 40
28 26 25 24 22 19 15 16 16 15 15 16 14 14 12 10 6 5 7 10 11 11 13 17 22 28 28 23 17 25 27 30 32 33 32 33 34 36 38 38 39 38 39
31 28 28 26 23 20 19 20 18 17 17 18 17 16 13 10 8 7 8 10 13 16 20 24 27 29 31 29 24 23 26 29 32 33 33 32 35 36 38 39 40 41 40
31 27 28 28 24 22 22 19 18 17 19 21 21 18 15 12 9 8 10 11 14 18 23 27 32 34 35 33 28 24 25 28 31 35 35 35 35 36 39 39 39 37 42
38 35 34 30 24 24 21 19 18 20 21 22 23 21 17 13 11 11 12 13 15 19 24 30 35 34 35 34 32 32 31 31 34 36 36 36 36 37 39 41 39 40 41
45 38 33 29 27 24 21 19 19 21 26 27 24 21 16 14 15 15 16 16 19 24 30 37 38 36 33 32 34 38 40 44 44 40 40 38 37 38 40 43 44 44 45
45 39 32 29 26 23 21 19 17 20 23 28 24 19 11 15 22 22 21 23 25 28 33 40 40 37 34 37 36 39 44 45 48 45 40 39 38 39 42 44 47 48 48
44 37 35 32 28 23 20 18 16 16 20 27 21 14 9 10 9 16 20 22 27 28 40 42 39 35 38 34 41 42 45 51 52 49 43 42 39 42 46 46 48 50 52
45 41 35 29 25 22 19 17 18 17 16 17 20 23 19 16 7 6 9 15 19 31 37 39 32 36 36 41 40 47 50 48 49 48 44 42 41 44 47 49 51 51 54
48 46 37 30 24 20 17 16 14 14 15 13 12 12 9 8 9 10 11 10 25 29 33 28 33 35 38 39 46 51 52 52 51 49 44 39 43 46 48 51 53 54 58
53 44 36 30 24 18 16 13 12 12 12 10 8 7 6 5 10 12 17 24 27 27 28 34 31 36 39 44 54 56 56 55 53 50 42 43 46 47 50 53 55 57 59
50 46 38 31 24 19 14 11 10 9 8 5 2 3 8 12 15 20 23 27 31 34 27 26 37 40 44 53 56 58 57 56 55 53 51 53 51 50 54 54 56 58 61
50 41 30 21 20 17 14 11 11 8 5 1 4 9 14 17 20 23 27 29 34 33 33 37 35 41 50 54 57 58 58 57 55 53 56 58 58 57 54 56 58 59 63
42 34 25 24 16 12 13 12 10 6 3 3 7 12 17 20 21 24 28 31 32 25 39 42 47 49 52 54 58 61 59 56 54 55 57 59 60 60 58 59 60 62 65
46 35 27 17 20 17 15 12 8 6 4 7 11 14 17 20 22 24 28 32 36 36 34 51 55 57 56 54 55 57 55 52 53 57 61 62 63 66 61 56 61 64 68
37 30 26 25 21 17 15 12 10 8 8 11 13 14 16 20 23 27 33 35 37 41 49 55 58 59 60 62 59 57 57 60 62 62 65 67 70 70 65 62 65 68 69
35 33 27 25 24 19 14 15 13 11 13 13 13 16 19 23 27 32 34 37 39 43 50 57 58 61 61 61 63 64 66 67 68 70 75 77 71 70 76 66 72 69 69
34 31 31 26 22 17 18 17 16 16 15 14 16 19 22 26 30 34 38 40 41 43 47 55 62 62 65 62 67 69 73 78 77 80 84 72 76 85 82 80 72 66 73
35 31 28 26 21 22 21 20 19 16 17 18 20 24 26 29 34 39 42 44 45 47 49 53 59 64 65 64 69 77 86 86 91 88 80 77 93 93 87 79 69 81 72
33 33 28 24 24 24 22 20 19 19 21 23 25 27 30 37 41 43 45 44 49 50 49 51 58 60 65 68 71 80 89 94 93 84 83 98 102 97 93 80 87 81 70
35 31 26 25 24 23 21 21 22 23 26 27 29 33 39 43 43 43 45 46 45 45 46 48 51 57 62 63 73 80 86 92 93 85 102 108 98 96 88 93 89 81 66
31 28 25 23 23 23 25 24 25 26 30 32 35 41 42 44 47 48 46 43 42 40 41 38 48 52 57 64 73 80 83 83 87 91 93 109 99 94 97 97 86 64 54
28 22 21 23 23 23 28 28 29 31 35 37 42 44 46 46 50 51 46 43 43 42 42 43 46 50 58 65 71 76 80 83 85 87 81 96 97 105 105 97 69 71 60
23 18 19 22 23 25 30 32 35 38 39 41 46 50 51 49 48 51 48 46 45 44 44 43 45 51 59 64 66 72 72 77 90 90 79 76 92 106 106 89 80 85 71
16 18 20 23 25 26 31 35 39 42 46 49 52 53 50 49 51 49 45 45 45 45 46 45 50 56 59 59 61 61 63 67 67 85 67 81 81 83 94 90 105 88 74
Wind_Direction_500mb
195 204 213 205 212 206 221 242 257 203 177 184 190 193 199 212 208 165 331 320 331 334 341 3 13 33 37 32 28 25 17 12 9 5 1 358 356 354 352 347 346 344 340
205 212 215 213 216 220 230 248 198 184 194 199 201 202 213 212 219 310 349 352 352 351 353 357 351 349 355 9 17 9 11 6 2 359 354 353 350 349 346 344 341 340 336
210 212 218 220 216 225 233 203 197 204 208 206 210 210 221 226 249 299 334 352 1 0 352 346 344 344 344 352 11 4 2 358 356 352 351 345 344 341 341 339 335 334 331
215 222 225 218 217 224 210 199 206 210 205 203 205 207 212 230 265 297 329 341 344 343 345 346 345 340 336 339 343 3 360 355 347 345 343 342 338 336 334 335 332 327 327
214 221 212 213 220 217 200 205 213 212 204 199 200 204 210 226 255 292 310 325 333 340 340 341 341 338 332 327 331 357 357 350 344 341 340 336 333 330 328 328 324 325 325
213 210 208 213 219 208 207 210 211 206 206 203 197 195 206 223 252 278 297 310 321 332 336 337 335 329 322 318 317 319 337 344 339 336 333 329 325 325 324 320 322 322 318
207 205 209 212 206 204 209 206 204 200 191 193 198 188 202 231 255 271 285 298 315 325 329 333 329 324 322 325 324 324 329 329 330 333 331 329 324 323 323 322 318 319 317
202 203 205 206 203 209 207 200 195 199 198 196 203 205 207 240 253 265 276 291 305 315 323 328 328 329 329 327 327 324 322 320 322 326 330 327 323 321 318 321 315 314 312
197 202 199 197 201 199 205 199 196 201 210 200 206 215 202 225 236 264 273 283 298 315 329 330 331 330 328 328 322 323 324 323 324 325 325 326 323 321 318 320 315 313 310
193 192 192 194 196 194 195 194 193 196 198 207 208 225 242 248 239 258 276 288 300 322 326 328 331 330 327 325 329 329 326 326 322 320 320 324 321 319 317 316 314 311 308
188 190 185 188 188 188 192 186 182 179 181 190 202 209 223 246 259 264 282 287 306 321 327 329 330 328 331 331 326 329 329 326 325 322 325 325 319 318 317 315 314 311 308
186 184 179 180 181 182 184 178 175 167 169 171 179 203 241 271 295 312 310 313 318 330 331 329 334 335 332 328 330 330 329 327 326 325 325 321 321 320 317 315 314 312 309
181 177 171 172 174 178 184 176 171 178 169 162 161 328 320 327 329 326 326 325 324 328 329 332 333 329 328 328 328 327 327 327 326 324 322 322 321 320 319 318 316 312 307
175 169 161 162 169 173 175 175 185 184 165 200 339 334 324 328 331 329 328 324 323 321 327 330 329 325 324 323 324 326 328 326 324 321 321 319 321 321 321 319 315 312 308
164 153 162 168 175 188 188 193 192 185 212 314 330 322 324 327 327 323 319 321 323 319 320 326 320 323 320 322 326 325 325 323 320 318 318 321 323 323 321 317 314 312 310
162 155 167 174 201 194 198 194 204 230 272 313 313 317 319 316 316 318 321 324 322 315 304 313 318 319 320 323 322 321 322 320 319 320 322 325 328 326 319 318 314 312 309
149 158 178 187 193 202 203 209 229 250 279 287 300 306 305 310 318 323 323 318 315 311 303 310 314 318 321 322 322 325 327 328 328 326 326 329 329 324 319 318 313 313 310
165 183 179 193 201 203 213 229 240 252 264 277 291 300 308 319 323 318 312 311 309 305 304 307 313 317 319 322 323 330 332 328 329 329 331 330 329 326 322 316 317 314 310
170 182 191 194 203 212 228 238 245 252 264 279 296 301 310 316 315 310 309 306 304 303 303 306 311 317 318 325 328 331 329 329 330 330 330 329 328 328 323 321 320 315 315
185 190 195 202 212 224 231 238 247 260 271 287 295 300 307 313 313 308 306 305 302 300 301 306 311 316 320 328 326 328 328 331 329 330 328 329 328 326 327 328 321 325 319
184 197 203 211 222 230 234 244 257 267 279 287 292 300 309 310 306 304 303 300 297 300 306 308 310 315 318 323 326 328 325 326 325 329 328 323 328 327 330 326 329 329 315
193 201 210 220 230 239 245 254 264 272 279 290 301 305 302 300 301 301 299 296 296 300 301 304 310 307 312 321 323 323 322 324 325 328 324 325 328 326 327 325 332 324 319
201 208 217 230 238 246 253 260 269 276 284 291 296 291 292 297 300 298 296 295 298 296 297 301 295 305 314 318 319 321 321 320 319 323 324 321 326 324 325 327 331 330 326
208 217 230 240 248 256 259 267 274 282 286 292 291 294 295 297 298 296 300 301 299 298 300 303 304 309 314 316 319 318 318 317 316 323 330 320 324 323 325 329 337 341 329
214 228 243 254 264 263 266 273 280 284 288 292 292 293 293 296 297 298 299 297 297 299 301 300 304 312 316 316 316 316 316 320 321 324 332 324 324 323 327 333 338 342 341
222 243 258 266 273 275 275 280 286 290 291 293 289 289 295 298 296 297 293 294 297 300 301 304 309 314 315 316 317 316 317 318 324 325 332 322 324 332 328 329 331 338 338
Wind_Speed_850mb
24 21 18 15 14 13 12 11 11 10 10 10 10 9 7 4 2 0 2 5 9 9 11 12 12 16 20 21 24 26 28 30 31 33 32 32 34 35 36 37 37 38 38
23 21 20 20 21 17 14 12 12 14 12 12 12 10 8 6 4 2 4 7 10 11 13 16 17 18 18 18 21 24 28 30 33 33 34 34 34 37 37 38 39 40 40
28 26 25 24 22 19 15 16 16 15 15 16 14 14 12 10 6 5 7 10 11 11 13 17 22 28 28 23 17 25 27 30 32 33 32 33 34 36 38 38 39 38 39
31 28 28 26 23 20 19 20 18 17 17 18 17 16 13 10 8 7 8 10 13 16 20 24 27 29 31 29 24 23 26 29 32 33 33 32 35 36 38 39 40 41 40
31 27 28 28 24 22 22 19 18 17 19 21 21 18 15 12 9 8 10 11 14 18 23 27 32 34 35 33 28 24 25 28 31 35 35 35 35 36 39 39 39 37 42
38 35 34 30 24 24 21 19 18 20 21 22 23 21 17 13 11 11 12 13 15 19 24 30 35 34 35 34 32 32 31 31 34 36 36 36 36 37 39 41 39 40 41
45 38 33 29 27 24 21 19 19 21 26 27 24 21 16 14 15 15 16 16 19 24 30 37 38 36 33 32 34 38 40 44 44 40 40 38 37 38 40 43 44 44 45
45 39 32 29 26 23 21 19 17 20 23 28 24 19 11 15 22 22 21 23 25 28 33 40 40 37 34 37 36 39 44 45 48 45 40 39 38 39 42 44 47 48 48
44 37 35 32 28 23 20 18 16 16 20 27 21 14 9 10 9 16 20 22 27 28 40 42 39 35 38 34 41 42 45 51 52 49 43 42 39 42 46 46 48 50 52
45 41 35 29 25 22 19 17 18 17 16 17 20 23 19 16 7 6 9 15 19 31 37 39 32 36 36 41 40 47 50 48 49 48 44 42 41 44 47 49 51 51 54
48 46 37 30 24 20 17 16 14 14 15 13 12 12 9 8 9 10 11 10 25 29 33 28 33 35 38 39 46 51 52 52 51 49 44 39 43 46 48 51 53 54 58
53 44 36 30 24 18 16 13 12 12 12 10 8 7 6 5 10 12 17 24 27 27 28 34 31 36 39 44 54 56 56 55 53 50 42 43 46 47 50 53 55 57 59
50 46 38 31 24 19 14 11 10 9 8 5 2 3 8 12 15 20 23 27 31 34 27 26 37 40 44 53 56 58 57 56 55 53 51 53 51 50 54 54 56 58 61
50 41 30 21 20 17 14 11 11 8 5 1 4 9 14 17 20 23 27 29 34 33 33 37 35 41 50 54 57 58 58 57 55 53 56 58 58 57 54 56 58 59 63
42 34 25 24 16 12 13 12 10 6 3 3 7 12 17 20 21 24 28 31 32 25 39 42 47 49 52 54 58 61 59 56 54 55 57 59 60 60 58 59 60 62 65
46 35 27 17 20 17 15 12 8 6 4 7 11 14 17 20 22 24 28 32 36 36 34 51 55 57 56 54 55 57 55 52 53 57 61 62 63 66 61 56 61 64 68
37 30 26 25 21 17 15 12 10 8 8 11 13 14 16 20 23 27 33 35 37 41 49 55 58 59 60 62 59 57 57 60 62 62 65 67 70 70 65 62 65 68 69
35 33 27 25 24 19 14 15 13 11 13 13 13 16 19 23 27 32 34 37 39 43 50 57 58 61 61 61 63 64 66 67 68 70 75 77 71 70 76 66 72 69 69
34 31 31 26 22 17 18 17 16 16 15 14 16 19 22 26 30 34 38 40 41 43 47 55 62 62 65 62 67 69 73 78 77 80 84 72 76 85 82 80 72 66 73
35 31 28 26 21 22 21 20 19 16 17 18 20 24 26 29 34 39 42 44 45 47 49 53 59 64 65 64 69 77 86 86 91 88 80 77 93 93 87 79 69 81 72
33 33 28 24 24 24 22 20 19 19 21 23 25 27 30 37 41 43 45 44 49 50 49 51 58 60 65 68 71 80 89 94 93 84 83 98 102 97 93 80 87 81 70
35 31 26 25 24 23 21 21 22 23 26 27 29 33 39 43 43 43 45 46 45 45 46 48 51 57 62 63 73 80 86 92 93 85 102 108 98 96 88 93 89 81 66
31 28 25 23 23 23 25 24 25 26 30 32 35 41 42 44 47 48 46 43 42 40 41 38 48 52 57 64 73 80 83 83 87 91 93 109 99 94 97 97 86 64 54
28 22 21 23 23 23 28 28 29 31 35 37 42 44 46 46 50 51 46 43 43 42 42 43 46 50 58 65 71 76 80 83 85 87 81 96 97 105 105 97 69 71 60
23 18 19 22 23 25 30 32 35 38 39 41 46 50 51 49 48 51 48 46 45 44 44 43 45 51 59 64 66 72 72 77 90 90 79 76 92 106 106 89 80 85 71
16 18 20 23 25 26 31 35 39 42 46 49 52 53 50 49 51 49 45 45 45 45 46 45 50 56 59 59 61 61 63 67 67 85 67 81 81 83 94 90 105 88 74
Wind_Direction_850mb
195 204 213 205 212 206 221 242 257 203 177 184 190 193 199 212 208 165 331 320 331 334 341 3 13 33 37 32 28 25 17 12 9 5 1 358 356 354 352 347 346 344 340
205 212 215 213 216 220 230 248 198 184 194 199 201 202 213 212 219 310 349 352 352 351 353 357 351 349 355 9 17 9 11 6 2 359 354 353 350 349 346 344 341 340 336
210 212 218 220 216 225 233 203 197 204 208 206 210 210 221 226 249 299 334 352 1 0 352 346 344 344 344 352 11 4 2 358 356 352 351 345 344 341 341 339 335 334 331
215 222 225 218 217 224 210 199 206 210 205 203 205 207 212 230 265 297 329 341 344 343 345 346 345 340 336 339 343 3 360 355 347 345 343 342 338 336 334 335 332 327 327
214 221 212 213 220 217 200 205 213 212 204 199 200 204 210 226 255 292 310 325 333 340 340 341 341 338 332 327 331 357 357 350 344 341 340 336 333 330 328 328 324 325 325
213 210 208 213 219 208 207 210 211 206 206 203 197 195 206 223 252 278 297 310 321 332 336 337 335 329 322 318 317 319 337 344 339 336 333 329 325 325 324 320 322 322 318
207 205 209 212 206 204 209 206 204 200 191 193 198 188 202 231 255 271 285 298 315 325 329 333 329 324 322 325 324 324 329 329 330 333 331 329 324 323 323 322 318 319 317
202 203 205 206 203 209 207 200 195 199 198 196 203 205 207 240 253 265 276 291 305 315 323 328 328 329 329 327 327 324 322 320 322 326 330 327 323 321 318 321 315 314 312
197 202 199 197 201 199 205 199 196 201 210 200 206 215 202 225 236 264 273 283 298 315 329 330 331 330 328 328 322 323 324 323 324 325 325 326 323 321 318 320 315 313 310
193 192 192 194 196 194 195 194 193 196 198 207 208 225 242 248 239 258 276 288 300 322 326 328 331 330 327 325 329 329 326 326 322 320 320 324 321 319 317 316 314 311 308
188 190 185 188 188 188 192 186 182 179 181 190 202 209 223 246 259 264 282 287 306 321 327 329 330 328 331 331 326 329 329 326 325 322 325 325 319 318 317 315 314 311 308
186 184 179 180 181 182 184 178 175 167 169 171 179 203 241 271 295 312 310 313 318 330 331 329 334 335 332 328 330 330 329 327 326 325 325 321 321 320 317 315 314 312 309
181 177 171 172 174 178 184 176 171 178 169 162 161 328 320 327 329 326 326 325 324 328 329 332 333 329 328 328 328 327 327 327 326 324 322 322 321 320 319 318 316 312 307
175 169 161 162 169 173 175 175 185 184 165 200 339 334 324 328 331 329 328 324 323 321 327 330 329 325 324 323 324 326 328 326 324 321 321 319 321 321 321 319 315 312 308
164 153 162 168 175 188 188 193 192 185 212 314 330 322 324 327 327 323 319 321 323 319 320 326 320 323 320 322 326 325 325 323 320 318 318 321 323 323 321 317 314 312 310
162 155 167 174 201 194 198 194 204 230 272 313 313 317 319 316 316 318 321 324 322 315 304 313 318 319 320 323 322 321 322 320 319 320 322 325 328 326 319 318 314 312 309
149 158 178 187 193 202 203 209 229 250 279 287 300 306 305 310 318 323 323 318 315 311 303 310 314 318 321 322 322 325 327 328 328 326 326 329 329 324 319 318 313 313 310
165 183 179 193 201 203 213 229 240 252 264 277 291 300 308 319 323 318 312 311 309 305 304 307 313 317 319 322 323 330 332 328 329 329 331 330 329 326 322 316 317 314 310
170 182 191 194 203 212 228 238 245 252 264 279 296 301 310 316 315 310 309 306 304 303 303 306 311 317 318 325 328 331 329 329 330 330 330 329 328 328 323 321 320 315 315
185 190 195 202 212 224 231 238 247 260 271 287 295 300 307 313 313 308 306 305 302 300 301 306 311 316 320 328 326 328 328 331 329 330 328 329 328 326 327 328 321 325 319
184 197 203 211 222 230 234 244 257 267 279 287 292 300 309 310 306 304 303 300 297 300 306 308 310 315 318 323 326 328 325 326 325 329 328 323 328 327 330 326 329 329 315
193 201 210 220 230 239 245 254 264 272 279 290 301 305 302 300 301 301 299 296 296 300 301 304 310 307 312 321 323 323 322 324 325 328 324 325 328 326 327 325 332 324 319
201 208 217 230 238 246 253 260 269 276 284 291 296 291 292 297 300 298 296 295 298 296 297 301 295 305 314 318 319 321 321 320 319 323 324 321 326 324 325 327 331 330 326
208 217 230 240 248 256 259 267 274 282 286 292 291 294 295 297 298 296 300 301 299 298 300 303 304 309 314 316 319 318 318 317 316 323 330 320 324 323 325 329 337 341 329
214 228 243 254 264 263 266 273 280 284 288 292 292 293 293 296 297 298 299 297 297 299 301 300 304 312 316 316 316 316 316 320 321 324 332 324 324 323 327 333 338 342 341
222 243 258 266 273 275 275 280 286 290 291 293 289 289 295 298 296 297 293 294 297 300 301 304 309 314 315 316 317 316 317 318 324 325 332 322 324 332 328 329 331 338 338